Rifle, CO

12:51 PM MDT on May 28, 2017 (GMT -0600)
Garfield County Regional

Weather History for KRIL - March, 2012

Change the Weather History Date:

Saturday, March 24, 2012

  Actual Average Record
Temperature  
Mean Temperature 52 °F 42 °F  
Max Temperature 73 °F 56 °F 73 °F (1933)
Min Temperature 31 °F 28 °F 10 °F (1952)
Degree Days  
Heating Degree Days 13 23  
Month to date heating degree days 574 632  
Since 1 July heating degree days 5335 5629  
Cooling Degree Days 0 0  
Month to date cooling degree days 0 0  
Year to date cooling degree days 0 0  
Growing Degree Days 3 (Base 50)    
Moisture  
Dew Point 22 °F    
Average Humidity 39    
Maximum Humidity 64    
Minimum Humidity 14    
Precipitation  
Precipitation 0.00 in 0.05 in 0.40 in (2003)
Month to date precipitation 0.25 0.83  
Year to date precipitation 1.92 2.40  
Sea Level Pressure  
Sea Level Pressure 30.00 in    
Wind  
Wind Speed 3 mph (SW)    
Max Wind Speed 16 mph    
Max Gust Speed 21 mph    
Visibility 10 miles    
Events      
T = Trace of Precipitation, MM = Missing Value Source: NWS Daily Summary

Daily Weather History Graph

Daily Weather History Graph

Search for Another Location

Airport or City:

Trip Planner

Search our weather history database for the weather conditions in past years. The results will help you decide how hot, cold, wet, or windy it might be!

Date:

Astronomy

Mar. 24, 2012 Rise Set
Actual Time 7:07 AM MDT 7:27 PM MDT
Civil Twilight 6:40 AM MDT 7:54 PM MDT
Nautical Twilight 6:08 AM MDT 8:26 PM MDT
Astronomical Twilight 5:36 AM MDT 8:58 PM MDT
Moon 7:48 AM MDT (3/24) 9:48 PM MDT (3/24)
Length of Visible Light 13h 14m
Length of Day
12h 20m
Waxing Crescent, 4% of the Moon is Illuminated
Mar 24
Waxing Crescent
Mar 30
First Quarter
Apr 6
Full
Apr 13
Last Quarter
Apr 21
New

Hourly Weather History & Observations

Time (MDT) Temp. Windchill Dew Point Humidity Pressure Visibility Wind Dir Wind Speed Gust Speed Precip Events Conditions
12:53 AM 41.0 °F - 21.9 °F 47% 29.99 in 10.0 mi Calm Calm - N/A   Clear
1:53 AM 37.0 °F - 21.0 °F 52% 30.01 in 10.0 mi Calm Calm - N/A   Clear
2:53 AM 37.9 °F - 21.9 °F 53% 30.00 in 10.0 mi Calm Calm - N/A   Clear
3:53 AM 37.0 °F - 21.9 °F 54% 30.00 in 10.0 mi Calm Calm - N/A   Clear
4:53 AM 33.1 °F 28.7 °F 21.0 °F 61% 30.02 in 10.0 mi ESE 4.6 mph - N/A   Clear
5:53 AM 33.1 °F 30.0 °F 21.9 °F 64% 30.05 in 10.0 mi South 3.5 mph - N/A   Clear
6:53 AM 33.1 °F 30.0 °F 21.0 °F 61% 30.07 in 10.0 mi South 3.5 mph - N/A   Clear
7:53 AM 34.0 °F 31.0 °F 23.0 °F 64% 30.11 in 10.0 mi East 3.5 mph - N/A   Clear
8:53 AM 42.1 °F - 25.0 °F 51% 30.11 in 10.0 mi Calm Calm - N/A   Clear
9:53 AM 51.1 °F - 23.0 °F 33% 30.08 in 10.0 mi Calm Calm - N/A   Clear
10:53 AM 57.0 °F - 24.1 °F 28% 30.04 in 10.0 mi Calm Calm - N/A   Clear
11:53 AM 61.0 °F - 24.1 °F 24% 30.01 in 10.0 mi Calm Calm - N/A   Clear
12:53 PM 68.0 °F - 24.1 °F 19% 29.97 in 10.0 mi West 6.9 mph - N/A   Clear
1:53 PM 70.0 °F - 21.9 °F 16% 29.95 in 10.0 mi West 12.7 mph - N/A   Clear
2:53 PM 71.1 °F - 23.0 °F 16% 29.92 in 10.0 mi West 5.8 mph - N/A   Clear
4:53 PM 73.0 °F - 21.9 °F 15% 29.90 in 10.0 mi WNW 10.4 mph - N/A   Clear
5:53 PM 71.1 °F - 19.0 °F 14% 29.91 in 10.0 mi West 18.4 mph - N/A   Clear
6:53 PM 66.0 °F - 19.9 °F 17% 29.93 in 10.0 mi West 15.0 mph - N/A   Clear
8:53 PM 54.0 °F - 21.9 °F 29% 29.99 in 10.0 mi East 6.9 mph - N/A   Clear
9:53 PM 52.0 °F - 21.0 °F 30% 29.98 in 10.0 mi ESE 8.1 mph - N/A   Clear
10:53 PM 48.9 °F - 21.9 °F 35% 29.99 in 10.0 mi Calm Calm - N/A   Clear
11:53 PM 45.0 °F - 23.0 °F 42% 29.99 in 10.0 mi Calm Calm - N/A   Clear